Погода в Ильинке

Россия / Республика Тыва     51°06′55″N   95°28′51″E
темп.,
°C
ветер,
м/с
пор.,
м/с
влажн.,
%
обл.,
%
осадки,
мм/ч
давл.,
гПа
погр.,
м
18 мая, ср
ср1801:00+9юв21644 0.0 101413
04:00+8юв22705 0.0 101416
07:00+14ююв11504 0.0 1015204
10:00+20сз22325 0.0 10131899
13:00+23сз432221 0.0 10112866
16:00+23сз42192 0.0 10102918
19:00+21ссз35240 0.0 1010501
22:00+13юв22390 0.0 101312
19 мая, чт
чт1901:00+11юв22465 0.0 101526
04:00+10юв22495 0.0 101517
07:00+16юв11350 0.0 1014170
10:00+24сз12201 0.0 10122057
13:00+26сз441620 0.0 10093711
16:00+26сз431795 0.0 10083496
19:00+23ссз112414 0.0 100741
22:00+15юв22390 0.0 101025
20 мая, пт
пт2001:00+13юв22470 0.0 101133
04:00+11юв22520 0.0 101130
07:00+18юв113419 0.0 1010173
10:00+22зсз4323100 0.0 10101142
13:00+24зсз5525100 0.0 10101869
16:00+17зсз5853100 0.4 1012937
19:00+15зсз2556100 0.5 1013804
22:00+11ююз1173100 0.0 101611
21 мая, сб
сб2101:00+9ююв118051 0.0 101711
04:00+7ю11866 0.1 101811
07:00+12юз11650 0.3 1018370
10:00+18сз234044 0.0 10171432
13:00+21зсз3422100 0.0 10152244
16:00+22сз34198 0.0 10121990
19:00+19ссз112996 0.0 101226
22:00+12юв224484 0.0 101414
22 мая, вс
вс2201:00+10юв22475 0.0 101429
04:00+9вюв22475 0.0 101323
07:00+16юв123251 0.0 1012192
10:00+26юз131619 0.0 10081381
13:00+27юз4411100 0.0 10052357
16:00+28зюз4511100 0.0 10042645
19:00+23зсз2619100 0.0 1005224
22:00+18вюв3328100 0.0 100745